FW9915 Weather Reports


time (UTC)temp
F
wind
direction
speed
knots
gust
knots
rain 1hr
in
rain 24hr
in
rain mn
in
humidity
%
barometer
mb
20260509043112 56 141 0.9 1.7 0.00 0.00 0.00 96 1014.7
20260509042056 56 135 0.0 1.7 0.00 0.00 0.00 98 1014.6
20260509041024 55 135 1.7 3.5 0.00 0.00 0.00 99 1014.6
20260509040104 55 158 0.9 3.5 0.00 0.00 0.00 99 1014.7
20260509035044 55 155 0.9 3.5 0.00 0.00 0.00 99 1014.7
20260509034024 55 158 0.0 1.7 0.00 0.00 0.00 99 1014.7
20260509033024 55 142 0.9 3.5 0.00 0.00 0.00 99 1014.6
20260509032024 55 176 0.0 3.5 0.00 0.00 0.00 99 1014.5
20260509031024 54 0.0 0.0 0.00 0.00 0.00 99 1014.5
20260509030024 54 0.0 0.0 0.00 0.00 0.00 99 1014.4
20260509025056 54 0.0 0.0 0.00 0.00 0.00 99 1014.4
20260509024024 54 0.0 0.0 0.00 0.00 0.00 99 1014.4
20260509023044 54 0.0 0.0 0.00 0.00 0.00 99 1014.4
20260509022044 54 0.0 0.0 0.00 0.00 0.00 99 1014.3
20260509021024 54 0.0 0.0 0.00 0.00 0.00 99 1014.4
20260509020024 55 203 0.0 1.7 0.00 0.00 0.00 99 1014.4
20260509015024 55 203 0.9 1.7 0.00 0.00 0.00 99 1014.4
20260509014025 55 192 1.7 3.5 0.00 0.00 0.00 99 1014.4
20260509013044 54 214 0.0 1.7 0.00 0.00 0.00 99 1014.3
20260509012026 54 225 0.0 1.7 0.00 0.00 0.00 99 1014.4
20260509011024 54 0.0 0.0 0.00 0.00 0.00 99 1014.5
20260509010024 54 0.0 0.0 0.00 0.00 0.00 99 1014.5
20260509005024 54 203 0.0 1.7 0.00 0.00 0.00 99 1014.7
20260509004044 54 0.0 0.0 0.00 0.00 0.00 99 1014.7
20260509003024 54 0.0 0.0 0.00 0.00 0.00 99 1014.7
20260509002024 54 203 0.0 1.7 0.00 0.00 0.00 99 1014.7
20260509001024 54 180 0.0 1.7 0.00 0.00 0.00 99 1014.9
20260509000024 54 165 0.9 1.7 0.00 0.00 0.00 99 1015.0
20260508235025 54 203 0.9 1.7 0.00 0.00 0.00 99 1015.0
20260508234024 54 180 0.0 1.7 0.00 0.00 0.00 99 1015.1
20260508233024 54 160 0.0 3.5 0.00 0.00 0.00 99 1015.2
20260508232044 54 144 1.7 6.1 0.00 0.00 0.00 99 1015.3
20260508231024 54 199 0.9 3.5 0.00 0.00 0.00 99 1015.2
20260508230024 54 180 0.9 3.5 0.00 0.00 0.00 99 1015.2
20260508225044 54 248 0.9 1.7 0.00 0.00 0.00 99 1015.2
20260508224044 54 248 1.7 3.5 0.00 0.00 0.00 99 1015.2
20260508223024 54 249 2.6 6.1 0.00 0.00 0.00 99 1015.2
20260508222024 54 247 3.5 6.1 0.00 0.00 0.00 99 1015.3
20260508221024 54 248 1.7 6.1 0.00 0.00 0.00 99 1015.3
20260508220036 53 248 1.7 3.5 0.00 0.00 0.00 99 1015.4
20260508215024 53 248 1.7 3.5 0.00 0.00 0.00 99 1015.5
20260508214036 53 248 0.9 1.7 0.00 0.00 0.00 99 1015.5
20260508213024 53 248 0.0 1.7 0.00 0.00 0.00 99 1015.5
20260508212044 53 233 0.9 3.5 0.00 0.00 0.00 99 1015.4
20260508211024 53 248 0.9 3.5 0.00 0.00 0.00 99 1015.5
20260508210024 53 225 0.9 3.5 0.00 0.00 0.00 99 1015.6
20260508205024 53 208 0.9 1.7 0.00 0.00 0.00 99 1015.5
20260508204044 53 178 0.9 1.7 0.00 0.00 0.00 99 1015.6
20260508203024 53 248 1.7 3.5 0.00 0.00 0.00 99 1015.4
20260508202024 53 228 0.9 3.5 0.00 0.00 0.00 99 1015.4
20260508201024 52 223 0.9 1.7 0.00 0.00 0.00 99 1015.4
20260508200024 53 214 0.9 1.7 0.00 0.00 0.00 99 1015.4
20260508195024 52 176 1.7 3.5 0.00 0.00 0.00 99 1015.3
20260508194024 52 174 2.6 3.5 0.00 0.00 0.00 99 1015.3
20260508193024 52 181 1.7 6.1 0.00 0.00 0.00 99 1015.2
20260508192024 52 187 2.6 3.5 0.00 0.00 0.00 99 1015.3
20260508191024 52 190 1.7 3.5 0.00 0.00 0.00 99 1015.2
20260508190048 52 203 1.7 3.5 0.00 0.00 0.00 99 1015.2
20260508185024 52 217 1.7 3.5 0.00 0.00 0.00 99 1015.1
20260508184036 53 184 0.9 3.5 0.00 0.00 0.00 99 1015.1
20260508183044 53 158 0.9 1.7 0.00 0.00 0.00 99 1015.0
20260508182037 53 152 1.7 3.5 0.00 0.00 0.00 99 1015.0
20260508181036 53 113 0.9 1.7 0.00 0.00 0.00 99 1014.9
20260508180024 53 131 1.7 3.5 0.00 0.00 0.00 99 1014.8
20260508175036 53 130 1.7 3.5 0.00 0.00 0.00 99 1014.8
20260508174044 53 135 0.9 3.5 0.00 0.00 0.00 99 1014.6
20260508173024 52 135 1.7 3.5 0.00 0.00 0.00 99 1014.5
20260508172024 53 113 1.7 1.7 0.00 0.00 0.00 99 1014.5
20260508171048 52 113 0.9 1.7 0.00 0.00 0.00 99 1014.5
20260508170024 52 113 0.9 1.7 0.00 0.00 0.00 99 1014.5
20260508165044 53 141 1.7 3.5 0.00 0.00 0.00 99 1014.5
20260508164036 53 177 0.9 3.5 0.00 0.00 0.00 99 1014.6
20260508163044 53 135 0.9 1.7 0.00 0.00 0.00 99 1014.6
20260508162024 53 182 0.9 3.5 0.00 0.00 0.00 99 1014.7
20260508161024 53 113 1.7 3.5 0.00 0.00 0.00 99 1014.7
20260508160036 53 165 0.9 3.5 0.00 0.00 0.00 99 1014.8
20260508155024 53 113 1.7 3.5 0.00 0.00 0.00 99 1014.8
20260508154044 53 113 1.7 3.5 0.00 0.00 0.00 99 1014.8
20260508153024 53 94 1.7 3.5 0.00 0.00 0.00 99 1014.9
20260508152024 53 126 1.7 3.5 0.00 0.00 0.00 99 1014.9
20260508151044 53 183 2.6 7.8 0.00 0.00 0.00 99 1015.2
20260508150024 53 169 1.7 3.5 0.00 0.00 0.00 99 1015.2
20260508145024 53 200 1.7 6.1 0.00 0.00 0.00 99 1015.2
20260508144024 53 150 1.7 3.5 0.00 0.00 0.00 99 1015.2
20260508143024 53 174 1.7 3.5 0.00 0.00 0.00 99 1015.4
20260508142024 53 130 3.5 6.1 0.00 0.00 0.00 99 1015.4
20260508141036 54 166 1.7 6.1 0.00 0.00 0.00 99 1015.4
20260508140036 54 123 0.9 3.5 0.00 0.00 0.00 99 1015.5
20260508135024 53 131 3.5 6.1 0.00 0.00 0.00 99 1015.4
20260508134024 53 150 2.6 3.5 0.00 0.00 0.00 99 1015.5
20260508133024 53 128 3.5 6.1 0.00 0.00 0.00 98 1015.6
20260508132044 54 129 2.6 6.1 0.00 0.00 0.00 97 1015.7
20260508131024 54 127 2.6 6.1 0.00 0.00 0.00 97 1015.7
20260508130044 54 136 2.6 6.1 0.00 0.00 0.00 97 1015.7
20260508125044 54 135 3.5 7.8 0.00 0.00 0.00 96 1015.7
20260508124024 55 137 4.3 7.8 0.00 0.00 0.00 95 1015.7
20260508123024 54 135 3.5 7.8 0.00 0.00 0.00 96 1015.7
20260508122024 54 117 4.3 6.1 0.00 0.00 0.00 96 1015.8
20260508121024 55 124 4.3 6.1 0.00 0.00 0.00 95 1015.8
20260508120036 55 126 3.5 7.8 0.00 0.00 0.00 94 1015.8
20260508115056 57 119 3.5 6.1 0.00 0.00 0.00 92 1016.0
20260508114024 55 144 4.3 6.1 0.00 0.00 0.00 95 1016.1
20260508113024 56 148 2.6 7.8 0.00 0.00 0.00 93 1016.2
20260508112036 55 128 3.5 6.1 0.00 0.00 0.00 94 1016.3
20260508111636 55 135 2.6 6.1 0.00 0.00 0.00 93 1016.3
20260508111024 55 139 3.5 6.1 0.00 0.00 0.00 95 1016.3
20260508104524 55 175 3.5 7.8 0.00 0.00 0.00 95 1016.5
20260508103524 55 145 2.6 6.1 0.00 0.00 0.00 95 1016.4
20260508102524 54 138 4.3 7.8 0.00 0.00 0.00 96 1016.4
20260508101524 55 114 4.3 7.8 0.00 0.00 0.00 95 1016.3
20260508100524 55 147 4.3 7.8 0.00 0.00 0.00 94 1016.3
20260508095536 56 150 2.6 6.1 0.00 0.00 0.00 93 1016.3
20260508094524 55 136 3.5 6.1 0.00 0.00 0.00 93 1016.4
20260508093524 56 132 4.3 7.8 0.00 0.00 0.00 92 1016.3
20260508092524 56 148 3.5 6.1 0.00 0.00 0.00 92 1016.4
20260508091604 56 139 3.5 6.1 0.00 0.00 0.00 93 1016.4
20260508090524 55 117 3.5 6.1 0.00 0.00 0.00 95 1016.4
20260508085524 55 128 2.6 3.5 0.00 0.00 0.00 95 1016.5
20260508084525 55 135 2.6 6.1 0.00 0.00 0.00 95 1016.6
20260508083524 55 117 3.5 6.1 0.00 0.00 0.00 94 1016.7
20260508082524 56 137 2.6 6.1 0.00 0.00 0.00 91 1016.7
20260508081524 56 137 1.7 6.1 0.00 0.00 0.00 94 1016.7
20260508080524 54 143 1.7 3.5 0.00 0.00 0.00 97 1016.7
20260508075524 54 127 2.6 6.1 0.00 0.00 0.00 98 1016.7
20260508074524 54 124 3.5 6.1 0.00 0.00 0.00 99 1016.7
20260508073524 54 185 0.9 3.5 0.00 0.00 0.00 99 1016.8
20260508072536 53 184 1.7 3.5 0.00 0.00 0.00 99 1016.8
20260508071524 53 137 1.7 3.5 0.00 0.00 0.00 99 1016.8
20260508070524 53 139 1.7 3.5 0.00 0.00 0.00 99 1016.8
20260508065524 53 175 1.7 3.5 0.00 0.00 0.00 99 1016.8
20260508064524 53 156 0.9 3.5 0.00 0.00 0.00 99 1016.8
20260508063524 53 181 1.7 3.5 0.00 0.00 0.00 99 1016.8
20260508062524 53 125 1.7 3.5 0.00 0.00 0.00 99 1016.7
20260508061524 53 137 0.9 3.5 0.00 0.00 0.00 99 1016.7
20260508060524 53 144 3.5 6.1 0.00 0.00 0.00 99 1016.6
20260508055524 53 143 1.7 3.5 0.00 0.00 0.00 99 1016.6
20260508054536 53 130 2.6 6.1 0.00 0.00 0.00 99 1016.5
20260508053524 54 149 2.6 6.1 0.00 0.00 0.00 99 1016.6
20260508052524 54 150 2.6 6.1 0.00 0.00 0.00 99 1016.4
20260508051524 54 185 0.9 3.5 0.00 0.00 0.00 99 1016.6
20260508050524 53 193 2.6 3.5 0.00 0.00 0.00 99 1016.6
20260508045544 53 180 1.7 3.5 0.00 0.00 0.00 99 1016.4
20260508044544 53 195 2.6 6.1 0.00 0.00 0.00 99 1016.3